#timestamp,LO_Frequency,Temp,Hum 
1440082816.0,286078801.1,27.8,37.6 
1440082835.2,286078801.4,27.8,37.6 
1440082855.3,286078799.5,27.8,37.6 
1440082875.5,286078801.5,27.8,37.2 
1440082895.6,286078798.8,27.8,35.7 
1440082915.7,286078799.4,27.8,36.7 
1440082935.8,286078802.0,27.8,36.7 
1440082956.0,286078803.1,27.8,36.7 
1440082976.1,286078797.4,27.8,36.7 
1440082995.3,286078799.0,27.8,36.7 
1440083015.4,286078796.9,27.8,37.6 
1440083035.6,286078800.5,27.8,38.1 
1440083055.7,286078798.5,27.8,38.1 
1440083075.8,286078801.9,27.8,37.6 
1440083095.9,286078801.3,27.8,37.6 
1440083116.1,286078801.4,27.8,37.2 
1440083135.3,286078801.3,27.8,36.7 
1440083155.4,286078799.4,27.8,37.6 
1440083175.5,286078795.3,27.8,38.1 
1440083195.7,286078801.8,27.8,37.6 
1440083215.8,286078803.7,27.8,38.1 
1440083235.9,286078799.7,27.8,38.1 
1440083256.0,286078799.2,27.8,38.6 
1440083275.3,286078800.1,27.1,38.6 
1440083295.4,286078802.6,27.8,38.6 
1440083315.5,286078801.5,27.1,38.6 
1440083335.6,286078799.8,27.1,39.1 
1440083355.8,286078798.8,27.1,38.6 
1440083375.9,286078803.9,27.1,38.6 
1440083396.0,286078799.1,27.1,39.1 
1440083415.2,286078799.5,27.8,39.1 
1440083435.4,286078798.9,27.8,38.1 
1440083455.5,286078800.8,27.8,37.2 
1440083475.6,286078797.0,27.8,37.2 
1440083495.7,286078803.0,27.8,37.2 
1440083515.9,286078797.0,27.8,37.2 
1440083536.0,286078801.3,27.8,37.6 
1440083556.1,286078800.8,27.8,37.6 
1440083575.3,286078799.7,27.8,37.2 
1440083595.4,286078799.4,27.8,36.7 
1440083615.6,286078795.3,27.8,35.7 
1440083635.7,286078799.9,27.1,35.7 
1440083655.8,286078798.8,27.1,35.2 
1440083675.9,286078800.5,27.8,35.2 
1440083696.1,286078800.3,27.8,34.2 
1440083715.3,286078796.9,27.8,33.7 
1440083735.4,286078798.4,27.8,34.7 
1440083755.5,286078803.0,27.1,34.2 
1440083775.7,286078799.7,27.1,34.2 
1440083795.8,286078799.5,27.1,34.7 
1440083815.9,286078796.0,27.1,35.2 
1440083836.0,286078797.3,27.1,30.7 
1440083855.3,286078800.1,27.1,29.2 
1440083875.4,286078801.3,27.1,30.2 
1440083895.5,286078798.4,27.1,30.7 
1440083915.7,286078804.3,27.1,29.7 
1440083935.8,286078798.1,27.1,30.2 
1440083955.9,286078797.0,27.1,27.7 
1440083976.1,286078800.1,27.1,27.7 
1440083995.3,286078804.1,27.1,28.7 
1440084015.4,286078797.6,27.1,29.2 
1440084035.6,286078799.8,27.1,29.7 
1440084055.7,286078797.4,27.1,31.7 
1440084075.8,286078798.5,27.1,32.2 
1440084095.9,286078800.7,27.1,33.2 
1440084116.1,286078802.9,27.1,34.2 
1440084135.3,286078796.8,27.1,34.2 
1440084155.5,286078802.3,27.1,34.7 
1440084175.6,286078802.3,27.8,35.2 
1440084195.7,286078800.0,27.8,34.7 
1440084215.9,286078804.5,27.8,35.2 
1440084236.0,286078800.5,27.8,35.2 
1440084256.1,286078802.8,27.8,35.2 
1440084275.3,286078799.4,27.8,35.2 
1440084295.5,286078797.9,27.8,36.2 
1440084315.6,286078798.0,27.8,36.7 
1440084335.7,286078801.2,27.8,36.2 
1440084355.8,286078800.8,27.8,36.2 
1440084376.0,286078801.3,27.8,36.2 
1440084396.1,286078797.3,27.8,36.2 
1440084415.3,286078796.8,27.8,36.7 
1440084435.5,286078800.7,27.8,36.7 
1440084455.6,286078798.7,27.8,36.7 
1440084475.7,286078803.5,27.8,36.7 
1440084495.8,286078799.7,27.8,37.2 
1440084516.0,286078801.5,27.8,37.2 
1440084536.1,286078801.5,27.8,37.2 
1440084555.3,286078799.2,27.8,37.6 
1440084575.4,286078799.0,27.8,36.2 
1440084595.6,286078799.9,27.1,36.7 
1440084615.7,286078802.5,27.8,36.7 
1440084635.8,286078800.0,27.8,36.2 
1440084655.9,286078799.4,27.8,35.7 
1440084676.1,286078798.7,27.8,34.7 
1440084695.3,286078801.5,27.8,34.7 
1440084715.4,286078796.9,27.8,34.7 
1440084735.5,286078801.2,27.8,34.7 
1440084755.7,286078800.5,27.8,35.2 
1440084775.8,286078801.7,27.8,35.2 
1440084795.9,286078802.0,27.8,35.2 
1440084816.0,286078801.0,27.8,35.2 
1440084835.3,286078801.0,27.8,34.7 
1440084855.4,286078797.4,27.8,34.7 
1440084875.5,286078799.9,27.8,34.7 
1440084895.6,286078799.7,27.8,34.7 
1440084915.8,286078797.6,27.8,34.7 
1440084935.9,286078800.2,27.8,34.7 
1440084956.0,286078800.3,27.8,34.2 
1440084975.2,286078801.0,27.8,34.2 
1440084995.3,286078801.5,27.8,34.2 
1440085015.5,286078795.9,27.8,33.2 
1440085035.6,286078801.2,27.8,32.7 
1440085055.7,286078795.4,27.8,33.2 
1440085075.8,286078800.9,27.8,33.2 
1440085096.0,286078796.9,27.8,33.2 
1440085116.1,286078803.9,27.8,33.7 
1440085135.3,286078801.9,27.8,34.2 
1440085155.4,286078800.1,27.8,34.7 
1440085175.6,286078803.1,27.8,34.7 
1440085195.7,286078799.4,27.8,35.2 
1440085215.8,286078803.0,27.8,35.2 
1440085235.9,286078799.6,27.8,35.2 
1440085256.1,286078798.6,27.8,34.7 
1440085275.3,286078801.2,27.8,35.2 
1440085295.4,286078801.1,27.8,35.2 
1440085315.5,286078799.2,27.8,35.2 
1440085335.7,286078799.0,27.8,34.7 
1440085355.8,286078801.5,27.8,34.2 
1440085375.9,286078797.4,27.8,34.2 
1440085396.0,286078797.2,27.8,33.7 
1440085415.3,286078802.8,27.8,34.2 
1440085435.4,286078798.7,27.8,34.2 
1440085455.5,286078798.6,27.8,33.7 
1440085475.6,286078801.6,27.8,33.7 
1440085495.8,286078799.2,27.8,33.2 
1440085515.9,286078796.9,27.8,33.2 
1440085536.0,286078802.1,27.8,33.7 
1440085555.2,286078799.9,27.8,33.2 
1440085575.4,286078798.5,27.8,34.2 
1440085595.5,286078800.5,27.8,34.2 
1440085615.6,286078798.4,27.8,34.2 
1440085635.7,286078803.1,27.8,34.2 
1440085655.9,286078798.4,27.8,34.2 
1440085676.0,286078802.2,27.8,34.7 
1440085696.1,286078798.7,27.8,34.7 
1440085715.3,286078800.1,27.8,35.2 
1440085735.4,286078800.8,27.8,35.7 
1440085755.6,286078803.1,27.8,35.7 
1440085775.7,286078799.4,27.8,35.2 
1440085795.8,286078799.0,27.8,34.7 
1440085816.0,286078800.0,27.8,34.7 
1440085835.2,286078803.1,27.8,34.2 
1440085855.3,286078798.0,27.8,34.7 
1440085875.5,286078800.7,27.8,35.2 
1440085895.6,286078798.6,27.8,34.7 
1440085915.7,286078800.1,27.8,35.2 
1440085935.9,286078802.1,27.8,35.7 
1440085956.0,286078802.8,27.8,36.2 
1440085975.2,286078795.3,27.8,37.2 
1440085995.4,286078802.1,27.8,37.2 
1440086015.5,286078800.1,27.8,37.6 
1440086035.6,286078800.5,27.8,37.2 
1440086055.7,286078802.6,27.8,37.6 
1440086075.9,286078798.5,27.8,37.2 
1440086096.0,286078801.3,27.8,36.7 
1440086115.2,286078798.0,27.8,36.7 
1440086135.3,286078798.6,27.8,36.2 
1440086155.5,286078801.4,27.8,35.7 
1440086175.6,286078798.6,27.8,35.2 
1440086195.7,286078800.3,27.8,35.2 
1440086215.8,286078803.1,27.8,34.7 
1440086236.0,286078797.1,27.8,34.2 
1440086256.1,286078800.9,27.8,34.2 
1440086275.3,286078800.3,27.8,34.7 
1440086295.4,286078800.6,27.8,35.2 
1440086315.6,286078795.7,27.8,34.7 
1440086335.7,286078800.7,27.8,33.2 
1440086355.8,286078798.8,27.8,33.2 
1440086375.9,286078803.0,27.8,33.2 
1440086396.1,286078798.3,27.8,34.2 
